Home   Weather   Puerto Williams   Past weeks

Flag for Chile Past Weather in Puerto Williams, Chile — Yesterday and Last 2 Weeks

Now
50 °F

Passing clouds.


Feels Like: 46 °F
Forecast: 43 / 56 °F
Wind: 12 mph from West

Location: Ushuaia Aerodrome

Current Time: Jan 21, 2017 at 11:10:10 pm

Latest Report: Jan 21, 2017 at 10:00 pm


Visibility: N/A

Pressure: 29.56 "Hg

Humidity: 71%

Dew Point: 41 °F

Location of Puerto WilliamsLocation

Past Weather in Puerto Williams — Graph

°F

Puerto Williams Temperature Yesterday

Maximum temperature yesterday: 63 °F (at 2:00 pm)
Minimum temperature yesterday: 52 °F (at 6:00 am)
Average temperature yesterday: 57 °F

High & Low Weather Summary for the Past Weeks

 TemperatureHumidityPressure
High63 °F (Jan 19, 7:00 pm)100% (Jan 16, 2:00 pm)29.74 "Hg (Jan 16, 2:00 pm)
Low36 °F (Jan 10, 11:00 am)27% (Jan 20, 4:00 pm)28.85 "Hg (Jan 16, 5:00 am)
Average47 °F70%29.28 "Hg
* Reported Jan 6 9:00 pm — Jan 21 9:00 pm, Puerto Williams, Weather by CustomWeather, © 2017

Note: Actual official high and low records may vary slightly from our data, if they occured in-between our weather recording intervals... More about our weather records

Advertising

Puerto Williams Weather History for the Previous 24 Hours

Scroll right to see more
 ConditionsComfort  
Time TempWeatherWind HumidityBarometerVisibility
9:00 pm
Sat, Jan 21
52 °FBroken clouds.17 mph62%29.56 "HgN/A
8:00 pm52 °FBroken clouds.14 mph62%29.56 "HgN/A
7:00 pm54 °FBroken clouds.17 mph58%29.56 "HgN/A
6:00 pm54 °FScattered clouds.9 mph54%29.59 "HgN/A
5:00 pm54 °FBroken clouds.5 mph51%29.59 "HgN/A
4:00 pm54 °FBroken clouds.6 mph51%29.59 "HgN/A
3:00 pm52 °FBroken clouds.61 mph62%29.59 "HgN/A
2:00 pm52 °FBroken clouds.5 mph54%29.59 "HgN/A
12:00 pm52 °FBroken clouds.3 mph67%29.59 "HgN/A
11:00 am48 °FBroken clouds.5 mph71%29.59 "HgN/A
10:00 am48 °FDrizzle. Partly sunny.12 mph71%29.59 "HgN/A
9:00 am52 °FPartly sunny.14 mph58%29.56 "HgN/A
8:00 am50 °FPartly sunny.3 mph62%29.53 "HgN/A
7:00 am48 °FPartly sunny.No wind62%29.53 "HgN/A
6:00 am45 °FScattered clouds.No wind71%29.50 "HgN/A
5:00 am46 °FClear.No wind62%29.50 "Hg10 mi
4:00 am48 °FPassing clouds.10 mph58%29.47 "HgN/A
3:00 am48 °FPassing clouds.12 mph62%29.47 "HgN/A
2:00 am52 °FPassing clouds.17 mph50%29.47 "HgN/A
1:00 am52 °FPassing clouds.7 mph54%29.47 "HgN/A
11:00 pm
Fri, Jan 20
54 °FPartly cloudy.7 mph47%29.47 "HgN/A
Weather by CustomWeather, © 2017

See weather overviewHow to use our weather pages